Theta_e
289 289 289 288 287 287 285 283 282 282 282 282 282 281 281 281 280 280 280 280 280 280 280 280 280 280 281 280 280 280 280 279 278 278 278 278 278 278 279 278 277 278
288 288 288 287 286 285 284 283 282 282 282 281 282 281 280 280 280 280 280 279 280 280 280 280 280 280 280 279 279 279 278 278 278 279 278 278 278 278 277 277 277 277
288 287 286 286 285 283 282 281 282 282 281 281 280 280 280 280 280 279 279 280 280 280 280 279 279 279 279 279 279 279 278 278 277 277 278 278 277 277 276 277 276 276
287 287 286 286 285 283 281 281 280 280 280 279 279 280 280 281 280 279 279 280 279 279 279 279 279 279 279 278 278 278 277 277 277 277 277 277 277 277 276 276 277 276
286 286 286 285 284 283 281 280 280 279 279 279 279 280 280 280 279 279 279 278 278 278 278 278 278 278 278 278 278 277 277 277 277 277 277 277 276 277 277 277 276 276
284 284 284 284 283 281 280 280 280 279 279 278 279 280 280 279 279 279 278 278 278 278 278 277 277 277 277 277 277 277 277 277 276 277 277 276 276 276 277 276 276 276
283 282 282 282 281 280 280 280 279 279 279 279 279 279 279 279 279 279 278 278 277 278 277 277 277 277 277 277 277 277 276 277 276 276 276 276 276 276 276 275 275 275
282 282 281 280 280 279 279 279 279 279 279 279 279 279 279 279 279 278 277 277 277 277 277 277 277 277 276 277 277 276 276 277 276 276 276 276 277 276 275 275 275 274
282 281 280 279 279 279 279 278 278 278 278 279 279 279 279 279 278 278 277 277 277 278 277 277 277 277 276 276 277 277 277 277 277 277 276 276 276 276 275 274 273 273
282 281 279 279 279 279 279 278 278 278 278 279 279 278 278 278 277 278 277 278 278 277 277 276 276 276 276 277 277 278 278 278 277 276 276 277 277 276 275 274 274 273
281 280 280 279 279 278 278 278 278 278 278 278 278 277 277 277 277 278 278 278 278 277 277 277 277 277 277 277 278 278 278 278 277 277 276 276 276 276 277 275 274 274
281 280 280 279 278 278 278 278 278 278 278 278 278 278 277 277 277 277 278 278 278 278 278 278 278 278 278 277 277 277 277 277 277 277 276 276 275 276 276 275 274 273
282 281 280 279 279 279 279 278 278 278 278 278 278 278 277 277 278 278 278 278 278 278 278 278 278 278 278 277 277 277 277 277 276 276 275 275 275 275 275 274 274 273
282 282 281 280 279 279 279 279 279 279 279 279 278 278 278 278 278 278 278 278 278 278 279 279 278 278 278 277 277 277 276 276 276 276 275 275 274 274 275 274 274 274
282 282 281 280 280 279 279 279 279 279 279 278 278 278 279 278 278 279 278 278 278 278 278 278 278 278 278 277 277 276 276 276 276 276 275 275 274 274 274 274 274 273
283 282 281 280 279 279 279 279 279 279 279 279 279 279 279 278 278 278 278 278 278 278 278 278 278 278 280 281 280 277 276 276 276 275 275 275 275 274 274 274 273 273
283 282 281 280 280 280 279 279 279 279 279 279 279 279 278 278 278 278 278 278 278 278 278 278 278 278 281 283 283 282 277 276 276 276 275 275 275 274 274 274 273 274
283 282 281 281 280 280 280 279 279 279 279 279 279 278 278 278 278 278 278 278 278 278 278 278 278 281 283 284 284 284 281 277 276 276 276 275 274 274 274 274 274 274
282 282 282 281 281 281 280 280 279 279 279 279 278 279 278 278 278 278 278 278 278 278 277 278 277 281 283 284 285 285 284 280 276 276 276 275 274 274 274 274 274 274
282 282 282 281 281 281 280 279 279 279 279 279 279 279 278 278 278 278 278 278 278 278 277 277 277 281 283 284 285 285 286 283 276 276 276 275 274 274 274 274 274 274
282 282 282 281 281 280 280 279 279 279 279 279 279 279 278 278 278 278 278 278 278 278 277 277 277 282 283 285 285 286 286 286 278 276 275 275 274 274 274 274 274 274
282 282 282 281 280 280 279 279 279 279 279 279 279 279 278 278 278 278 278 278 278 277 277 277 277 282 283 284 285 286 286 284 279 276 275 274 274 274 274 274 274 273
282 282 281 281 280 280 279 279 279 279 279 279 278 279 278 278 278 278 278 278 278 277 277 277 277 281 283 284 285 286 286 283 280 277 275 274 274 274 274 274 273 273
281 281 281 280 280 279 279 279 279 278 277 277 278 278 278 278 278 278 278 278 278 277 277 277 278 279 283 284 284 285 285 282 280 277 276 275 275 274 273 273 273 275
280 280 280 280 279 279 278 278 278 278 278 278 279 279 278 278 278 278 277 277 277 278 279 278 277 278 281 283 284 285 284 282 280 277 277 276 275 275 274 273 272 274
281 281 280 280 280 279 279 279 279 279 278 278 278 278 278 278 277 277 277 277 276 276 276 277 276 275 277 282 283 284 285 283 280 278 277 277 277 276 275 274 273 272
Wind_Speed
8 9 9 9 9 9 11 10 8 9 9 8 9 8 9 7 7 7 6 5 5 7 7 7 6 7 7 7 7 8 7 8 6 5 6 7 6 7 8 6 5 6
9 9 7 6 6 6 7 9 12 11 10 9 8 8 6 6 6 6 6 6 5 6 6 6 6 7 8 8 7 9 7 7 7 3 7 8 6 7 7 7 6 4
9 9 9 10 9 10 10 8 8 8 9 9 6 7 7 5 7 5 5 6 7 6 6 6 6 6 7 8 7 8 8 7 7 4 7 7 6 8 6 7 6 4
10 10 10 10 9 10 9 8 7 6 6 8 8 7 7 6 6 7 6 6 7 7 6 6 7 7 7 8 8 7 7 6 6 6 7 5 5 7 7 6 6 5
11 10 8 8 8 8 9 10 10 8 8 8 7 7 8 8 7 7 7 6 7 8 7 7 6 7 7 8 8 8 7 7 5 6 8 7 5 7 6 7 6 6
8 9 10 11 9 9 9 9 10 10 9 8 9 8 7 8 8 8 9 9 7 8 8 7 7 7 7 8 7 8 8 8 6 6 8 8 6 5 6 6 7 6
9 8 9 8 9 9 10 9 8 8 8 8 8 8 9 9 9 9 8 8 8 8 9 9 9 8 6 7 7 8 6 7 6 7 9 6 7 6 4 6 6 6
10 7 8 7 9 9 9 8 8 8 8 8 10 9 9 9 9 7 7 8 8 8 7 7 7 8 7 7 8 8 7 5 7 7 8 7 7 7 6 5 5 6
9 9 9 8 9 9 9 9 8 7 6 9 9 8 6 7 8 8 8 7 7 7 6 6 7 7 6 7 8 9 9 7 7 8 9 9 8 8 7 6 5 5
10 9 10 9 10 9 10 8 8 6 6 7 7 7 8 5 5 6 7 8 8 7 6 6 6 6 6 6 8 8 9 9 8 7 7 7 8 8 8 7 7 6
10 10 11 11 10 9 10 8 8 7 6 7 7 7 6 6 5 4 6 7 8 8 7 7 7 7 7 6 5 5 6 7 7 7 6 6 7 8 7 8 7 8
12 11 12 12 11 10 11 10 9 8 8 6 7 8 7 6 7 6 6 7 6 7 7 7 6 6 6 6 5 5 5 5 6 6 6 6 6 6 7 7 8 7
13 13 12 12 11 11 10 10 10 9 9 9 8 8 8 8 7 7 6 6 6 6 6 6 6 6 6 6 5 5 5 6 6 6 5 5 5 6 6 6 6 6
12 11 11 11 10 10 11 11 10 10 10 8 8 9 9 9 9 9 7 5 6 6 5 5 6 5 5 5 5 6 6 6 6 6 6 5 5 5 5 6 6 6
10 10 9 10 10 10 10 10 10 9 9 8 8 8 7 8 7 8 8 7 6 6 5 5 6 6 6 7 7 6 6 6 6 6 6 6 5 5 5 5 6 6
10 9 10 9 9 10 9 9 9 9 9 9 9 8 8 7 7 7 7 8 8 7 6 6 6 5 6 10 8 7 7 6 5 6 6 6 6 5 5 6 7 6
9 9 9 9 9 8 7 9 9 9 9 9 9 8 8 8 8 8 8 7 7 7 7 6 6 5 9 11 12 11 6 6 7 7 6 6 6 7 8 8 7 7
9 9 10 9 9 8 8 8 8 8 9 8 8 8 7 7 8 9 7 7 6 6 7 6 6 6 11 12 13 13 11 8 6 6 6 7 7 7 7 7 8 7
9 10 10 9 9 9 8 9 9 9 9 9 9 8 7 8 9 9 9 7 8 8 7 6 6 8 12 13 14 15 15 11 5 7 6 7 8 8 8 8 7 7
9 10 10 10 9 9 9 9 9 10 9 8 8 8 9 8 8 9 8 8 8 8 7 6 6 8 13 14 15 16 16 13 6 7 6 7 8 8 8 9 9 8
11 11 11 10 9 9 10 10 11 9 10 9 9 10 11 10 10 9 8 7 6 6 7 7 7 11 14 15 16 17 17 13 6 6 6 6 7 7 9 9 9 8
11 10 9 9 9 8 9 9 9 10 10 7 7 6 5 5 5 6 8 8 7 7 7 9 8 13 15 16 17 17 18 10 6 7 7 7 8 9 10 9 7 8
10 10 9 8 9 9 9 8 8 8 7 6 7 7 7 7 7 7 6 7 8 8 9 9 7 11 16 17 17 19 13 8 7 7 7 8 10 10 9 8 8 9
9 9 10 9 9 10 9 7 5 4 6 6 7 6 6 5 5 5 4 6 8 9 10 10 8 8 14 16 17 18 13 9 7 7 8 8 9 9 7 7 9 12
8 9 9 9 9 9 9 9 9 8 6 6 6 6 6 5 5 5 5 5 7 8 7 8 6 6 13 15 16 16 12 7 7 6 8 9 8 9 7 7 8 9
7 9 8 9 8 6 6 7 6 7 7 7 5 5 5 5 5 6 8 7 5 5 6 7 7 6 6 13 14 14 15 9 6 6 10 11 9 9 9 8 7 7
Wind_Direction
166 170 171 172 170 172 166 164 173 174 176 169 173 177 182 174 164 168 164 153 150 142 144 143 140 130 123 119 116 111 106 110 106 117 117 116 116 121 115 109 89 107
172 170 169 170 159 165 175 173 171 175 176 175 176 165 167 156 166 161 159 154 149 145 142 142 141 133 130 126 126 116 114 117 115 131 120 110 117 107 106 103 105 105
169 170 171 173 172 176 177 176 177 176 170 172 158 156 157 157 157 157 154 156 148 145 146 143 135 134 129 126 125 121 127 129 124 129 114 118 122 111 112 112 106 109
175 176 176 180 177 175 170 165 173 173 157 155 168 161 156 157 156 154 157 158 149 147 147 147 141 136 132 129 123 119 125 123 131 131 115 108 114 119 122 115 112 107
176 177 181 180 176 170 167 171 173 171 176 166 144 150 154 158 156 159 160 162 158 151 153 150 144 140 137 131 130 126 130 130 140 135 124 122 128 124 131 124 129 129
185 182 177 175 172 168 174 179 176 171 172 164 163 156 162 158 162 168 168 164 165 157 154 153 148 144 142 135 131 134 140 138 152 139 128 131 132 123 130 134 138 138
180 178 182 176 167 173 174 177 176 173 177 169 145 167 163 168 172 172 170 166 160 164 160 160 153 148 143 137 134 137 139 141 146 143 133 133 132 128 130 141 145 142
180 178 175 169 168 170 177 174 173 177 175 160 172 170 169 170 170 167 166 165 163 164 163 154 149 145 145 142 143 141 142 149 150 144 137 139 141 145 149 151 145 145
173 175 167 174 173 173 177 174 175 177 174 172 170 165 166 171 169 165 166 162 159 157 155 155 154 149 151 149 152 153 153 159 159 152 150 153 158 161 156 147 145 155
177 171 171 175 179 178 177 175 171 171 170 173 164 153 162 164 163 164 159 164 160 160 160 152 150 152 155 163 161 161 160 161 160 157 156 164 164 159 158 161 163 160
179 174 177 180 181 177 179 169 168 163 168 171 154 157 159 152 159 164 166 167 168 164 159 161 164 161 161 162 162 161 164 161 162 158 162 171 171 165 165 166 167 180
182 179 184 182 179 179 177 171 166 165 166 164 161 158 156 164 163 167 174 174 168 167 164 161 158 159 161 162 160 157 157 162 159 161 167 172 169 169 171 175 175 181
186 185 181 181 183 180 174 170 169 165 164 167 165 161 162 165 167 169 176 174 168 162 164 160 157 160 163 161 160 162 163 162 164 165 169 172 175 175 178 179 182 184
186 181 182 183 182 177 177 173 168 166 169 163 159 164 168 173 173 175 169 164 166 168 163 156 160 160 160 156 162 170 171 170 172 174 173 178 174 182 184 189 193 196
176 179 183 180 179 177 175 172 166 161 159 159 162 165 170 172 169 165 160 164 164 163 158 160 168 175 171 172 170 178 180 177 177 180 179 180 181 185 192 199 205 206
175 176 179 176 174 178 173 161 160 159 160 163 171 173 166 160 159 160 165 172 166 167 167 165 180 181 182 181 183 179 179 178 175 182 185 185 184 188 202 212 215 212
172 179 171 174 174 163 159 162 163 163 164 167 169 167 163 159 156 164 174 171 172 172 172 182 184 181 179 189 190 187 177 183 185 189 188 190 192 194 206 212 218 218
174 168 168 170 165 168 164 163 159 162 168 169 166 162 160 155 166 176 168 168 169 173 185 185 184 176 188 195 196 193 188 191 193 191 190 197 198 203 213 212 216 217
166 166 168 167 171 167 162 160 164 166 167 167 171 168 155 165 175 168 175 170 172 181 186 183 187 185 193 199 202 204 201 192 199 197 194 203 203 207 212 215 211 215
166 167 169 169 166 165 162 164 165 172 171 168 158 157 168 171 174 177 171 176 178 180 184 182 190 190 199 204 207 209 209 199 200 201 206 207 207 210 215 216 211 207
168 172 169 163 166 163 163 167 170 168 168 169 170 174 174 177 176 175 178 171 171 176 181 192 200 197 203 208 212 213 214 210 194 200 210 215 216 217 223 223 215 212
167 165 164 165 161 159 164 170 173 172 169 161 159 160 151 147 159 164 173 174 177 181 189 206 208 199 205 211 214 215 215 214 196 198 211 218 222 224 226 226 216 216
164 161 159 148 155 161 169 169 169 167 163 154 159 164 168 175 173 179 175 174 186 192 199 212 209 202 206 211 214 216 212 215 201 201 213 218 228 228 230 225 220 219
160 152 151 159 161 168 169 162 145 135 146 149 156 155 164 173 177 176 174 185 195 203 205 210 214 200 208 214 216 216 213 214 208 205 220 224 236 237 228 230 227 223
145 147 152 157 164 168 163 160 164 162 152 151 159 164 173 162 165 176 193 200 207 212 210 214 223 204 210 218 219 219 217 217 209 210 225 234 235 245 234 225 237 230
150 150 155 159 158 146 148 154 143 140 154 159 159 162 161 164 176 189 201 212 199 206 212 213 217 218 210 221 222 224 221 218 213 207 231 237 236 241 249 240 231 236